Location: Unspecified
(0.0000°N, 0.0000°E)
Time: 13:37:21
(UTC+02:00)

Cosmos 1515 Rocket - Visible Passes

Search period start: 26 April 2018 00:00
Search period end: 06 May 2018 00:00
Orbit: 607 x 630 km, 82.5° (Epoch: 25 April)

Date Brightness Start Highest point End Pass type
(mag) Time Alt. Az. Time Alt. Az. Time Alt. Az.
26 Apr 4.0 21:18:43 10° SSW 21:23:07 64° W 21:27:31 10° N visible
27 Apr 5.6 21:36:25 10° SW 21:40:13 28° W 21:44:00 10° NNW visible
28 Apr 4.6 20:16:05 10° SSE 20:19:44 25° E 20:23:22 10° NE visible
28 Apr 6.8 21:55:23 10° WSW 21:57:18 13° W 21:59:12 10° WNW visible
29 Apr 3.6 20:32:27 10° S 20:36:50 57° E 20:41:11 10° NNE visible
30 Apr 4.2 20:49:30 10° SSW 20:53:55 61° W 20:58:18 10° N visible
01 May 5.9 21:07:15 10° SW 21:10:59 26° W 21:14:43 10° NNW visible
02 May 6.9 21:26:23 10° WSW 21:28:04 12° W 21:29:45 10° WNW visible
04 May 4.4 20:20:18 10° SSW 20:24:41 58° W 20:29:03 10° N visible
05 May 6.1 20:38:05 10° SW 20:41:46 25° W 20:45:26 10° NNW visible
